Main page
Satellite images Climate Cyclones Lightning AirportsFAQ Languages Contact Newsletter About
Weather : Europe Africa North America South America Asia Australia-Oceania Others

, Mae Sot, Mae Sot Airport

48375

latitude: , longitude: Thailand, elevation: 16-40N m


METAR: VTPM 240500Z 29005KT 230V030 9999 FEW020CB SCT022 32/22 Q1010